Location: Huntsville
(41.2590°N, 111.7678°W)
Time: 19:04:30
(UTC+00:00)

BlueWalker 3 - Pass Details

Date: 08 December 2022
Orbit: 499 x 517 km, 53.2° (Epoch: 29 January)

Event Time Altitude Azimuth Distance (km) Brightness Sun altitude
Rises 01:35:52 0° 312° (NW) 2,628 6.1 -17.8°
Reaches altitude 10° 01:38:14 10° 322° (NW) 1,735 4.9 -18.3°
Enters shadow 01:41:33 33° 19° (NNE) 872 2.8 -18.9°
